This is the latest recevied weather packets stored in our database for station/object GCEMA. If no packets are shown the sender has not sent any weather packets the latest 10 day(s).
| Time | Temp. | Humidity | Pressure | Rain* | Wind** | Luminosity | Snow |
|---|---|---|---|---|---|---|---|
| 1777832963 | 16.11° C | - | 1013.9 hPa | 0 mm | 0 m/s | - | - |
| 1777832783 | 17.22° C | - | 1014 hPa | 0 mm | 0 m/s | - | - |
| 1777832604 | 16.11° C | - | 1014.1 hPa | 0 mm | 0 m/s | - | - |
| 1777832425 | 17.22° C | - | 1014.2 hPa | 0 mm | 0 m/s | - | - |
| 1777832062 | 16.67° C | - | 1014.3 hPa | 0 mm | 0 m/s | - | - |
| 1777831883 | 16.67° C | - | 1014.4 hPa | 0 mm | 0 m/s | - | - |
| 1777831703 | 17.22° C | - | 1014.5 hPa | 0 mm | 0 m/s | - | - |
| 1777831524 | 16.67° C | - | 1014.5 hPa | 0 mm | 0 m/s | - | - |
| 1777831162 | 15.56° C | - | 1014.6 hPa | 0 mm | 0 m/s | - | - |
| 1777830982 | 16.67° C | - | 1014.8 hPa | 0 mm | 0 m/s | - | - |
| 1777830805 | 16.67° C | - | 1014.8 hPa | 0 mm | 0 m/s | - | - |
| 1777830623 | 16.11° C | - | 1014.9 hPa | 0 mm | 0 m/s | - | - |
| 1777830261 | 16.67° C | - | 1015.1 hPa | 0 mm | 0 m/s | - | - |
| 1777830082 | 15.56° C | - | 1015.1 hPa | 0 mm | 0 m/s | - | - |
| 1777829723 | 15.56° C | - | 1015.3 hPa | 0 mm | 0 m/s | - | - |
| 1777829362 | 15.56° C | - | 1015.4 hPa | 0 mm | 0 m/s | - | - |
| 1777829002 | 15.56° C | - | 1015.5 hPa | 0 mm | 0 m/s | - | - |
| 1777828822 | 15.56° C | - | 1015.5 hPa | 0 mm | 0 m/s | - | - |
| 1777828643 | 15° C | - | 1015.5 hPa | 0 mm | 0 m/s | - | - |
| 1777828460 | 16.11° C | - | 1015.5 hPa | 0 mm | 0 m/s | - | - |
| 1777828281 | 15.56° C | - | 1015.5 hPa | 0 mm | 0 m/s | - | - |
| 1777828101 | 17.22° C | - | 1015.4 hPa | 0 mm | 0 m/s | - | - |
| 1777827922 | 16.11° C | - | 1015.6 hPa | 0 mm | 0 m/s | - | - |
| 1777827742 | 15.56° C | - | 1015.7 hPa | 0 mm | 0 m/s | - | - |
| 1777827560 | 15.56° C | - | 1015.7 hPa | 0 mm | 0 m/s | - | - |
* Rain latest hour (hover to see other rain measurements)
** Current wind speed in m/s (hover to see current wind gust speed)